When you browse on this site, cookies collect data to enhance your experience and personalize the content and advertising you see.
Visit our Privacy Policy to learn more. By continuing to use the site, you agree to this use of cookies and data.
  • In Romania
  • List of Countries
  • For 7 days
  • Water Temperature
  • Satellite Maps
  • Weather Map
  • Weather Widgets
  • user-avatar
    Login

    Hourly Weather Wasow

    Today, 25 May, Saturday

    Time Temperature Precipitation Wind Pressure Humidity
    00:00 +12°C° 0 mm 2 mps 738 mmHg 92%
    01:00 +10°C° 0 mm 2 mps 738 mmHg 92%
    02:00 +10°C° 0 mm 2 mps 738 mmHg 92%
    03:00 +10°C° 0 mm 2 mps 738 mmHg 92%
    04:00 +9°C° 0 mm 2 mps 738 mmHg 92%
    05:00 +12°C° 0 mm 2 mps 738 mmHg 88%
    06:00 +13°C° 0 mm 2 mps 738 mmHg 85%
    07:00 +15°C° 0 mm 2 mps 739 mmHg 81%
    08:00 +17°C° 0 mm 3 mps 739 mmHg 73%
    09:00 +18°C° 0 mm 3 mps 739 mmHg 66%
    10:00 +20°C° 0 mm 3 mps 739 mmHg 59%
    11:00 +20°C° 0 mm 3 mps 739 mmHg 57%
    12:00 +21°C° 0 mm 3 mps 739 mmHg 56%
    13:00 +22°C° 0 mm 3 mps 738 mmHg 54%
    14:00 +23°C° 0 mm 2 mps 738 mmHg 56%
    15:00 +23°C° 0 mm 2 mps 738 mmHg 57%
    16:00 +23°C° 0 mm 2 mps 738 mmHg 59%
    17:00 +20°C° 0.1 mm 2 mps 738 mmHg 65%
    18:00 +19°C° 0.1 mm 2 mps 738 mmHg 71%
    19:00 +17°C° 0.1 mm 2 mps 738 mmHg 77%
    20:00 +16°C° 0 mm 1 mps 738 mmHg 80%
    21:00 +15°C° 0 mm 1 mps 739 mmHg 83%
    22:00 +14°C° 0 mm 1 mps 739 mmHg 86%
    23:00 +14°C° 0 mm 1 mps 739 mmHg 87%

    Tomorrow, 26 May, Sunday

    Time Temperature Precipitation Wind Pressure Humidity
    00:00 +13°C° 0 mm 1 mps 739 mmHg 88%
    01:00 +13°C° 0 mm 1 mps 739 mmHg 88%
    02:00 +13°C° 0 mm 1 mps 739 mmHg 89%
    03:00 +12°C° 0 mm 1 mps 739 mmHg 89%
    04:00 +12°C° 0 mm 1 mps 739 mmHg 89%
    05:00 +14°C° 0 mm 1 mps 739 mmHg 86%
    06:00 +15°C° 0 mm 2 mps 739 mmHg 83%
    07:00 +17°C° 0 mm 2 mps 740 mmHg 80%
    08:00 +18°C° 0.1 mm 2 mps 740 mmHg 77%
    09:00 +19°C° 0.1 mm 2 mps 740 mmHg 74%
    10:00 +20°C° 0.1 mm 3 mps 739 mmHg 70%
    11:00 +21°C° 0.1 mm 3 mps 739 mmHg 68%
    12:00 +22°C° 0.1 mm 3 mps 739 mmHg 65%
    13:00 +22°C° 0.1 mm 3 mps 739 mmHg 62%
    14:00 +22°C° 0.2 mm 3 mps 739 mmHg 63%
    15:00 +22°C° 0.2 mm 3 mps 738 mmHg 64%
    16:00 +22°C° 0.2 mm 3 mps 738 mmHg 66%
    17:00 +21°C° 0.4 mm 2 mps 738 mmHg 71%
    18:00 +20°C° 0.4 mm 2 mps 738 mmHg 77%
    19:00 +18°C° 0.4 mm 2 mps 738 mmHg 82%
    20:00 +17°C° 0 mm 2 mps 738 mmHg 84%
    21:00 +16°C° 0 mm 2 mps 739 mmHg 87%
    22:00 +16°C° 0 mm 2 mps 739 mmHg 89%
    23:00 +15°C° 0 mm 2 mps 739 mmHg 90%

    Day after tomorrow, 27 May, Monday

    Time Temperature Precipitation Wind Pressure Humidity
    00:00 +15°C° 0 mm 2 mps 739 mmHg 91%
    01:00 +14°C° 0 mm 2 mps 738 mmHg 92%
    02:00 +14°C° 0 mm 2 mps 738 mmHg 92%
    03:00 +14°C° 0 mm 2 mps 738 mmHg 91%
    04:00 +14°C° 0 mm 2 mps 738 mmHg 91%
    05:00 +15°C° 0 mm 2 mps 738 mmHg 88%
    06:00 +17°C° 0 mm 2 mps 738 mmHg 85%
    07:00 +19°C° 0 mm 2 mps 738 mmHg 82%
    08:00 +20°C° 0.1 mm 2 mps 738 mmHg 76%
    09:00 +22°C° 0.1 mm 3 mps 738 mmHg 70%
    10:00 +24°C° 0.1 mm 3 mps 738 mmHg 64%
    11:00 +25°C° 0.2 mm 3 mps 738 mmHg 62%
    12:00 +25°C° 0.2 mm 3 mps 737 mmHg 59%
    13:00 +26°C° 0.2 mm 3 mps 737 mmHg 56%
    14:00 +26°C° 0.2 mm 2 mps 737 mmHg 59%
    15:00 +26°C° 0.2 mm 2 mps 737 mmHg 62%
    16:00 +25°C° 0.2 mm 2 mps 736 mmHg 65%
    17:00 +24°C° 0.3 mm 2 mps 736 mmHg 69%
    18:00 +21°C° 0.3 mm 2 mps 736 mmHg 74%
    19:00 +21°C° 0.3 mm 1 mps 736 mmHg 78%
    20:00 +20°C° 0 mm 1 mps 736 mmHg 80%
    21:00 +19°C° 0 mm 1 mps 736 mmHg 82%
    22:00 +18°C° 0 mm 1 mps 736 mmHg 84%
    23:00 +18°C° 0.8 mm 1 mps 736 mmHg 87%

    28 May, Tuesday

    Time Temperature Precipitation Wind Pressure Humidity
    00:00 +18°C° 0.8 mm 1 mps 736 mmHg 89%
    01:00 +18°C° 0.8 mm 1 mps 736 mmHg 92%
    02:00 +16°C° 0.8 mm 1 mps 735 mmHg 93%
    03:00 +16°C° 0.8 mm 1 mps 735 mmHg 94%
    04:00 +16°C° 0.8 mm 1 mps 735 mmHg 95%
    05:00 +18°C° 0.1 mm 1 mps 734 mmHg 93%
    06:00 +19°C° 0.1 mm 1 mps 734 mmHg 91%
    07:00 +20°C° 0.1 mm 1 mps 734 mmHg 89%
    08:00 +21°C° 0 mm 1 mps 734 mmHg 82%
    09:00 +23°C° 0 mm 1 mps 734 mmHg 74%
    10:00 +25°C° 0 mm 2 mps 734 mmHg 67%
    11:00 +25°C° 0.6 mm 2 mps 734 mmHg 69%
    12:00 +25°C° 0.6 mm 1 mps 733 mmHg 70%
    13:00 +24°C° 0.6 mm 1 mps 733 mmHg 72%
    14:00 +23°C° 2.9 mm 2 mps 733 mmHg 76%
    15:00 +21°C° 2.9 mm 2 mps 732 mmHg 81%
    16:00 +20°C° 2.9 mm 2 mps 732 mmHg 85%
    17:00 +20°C° 0.3 mm 2 mps 732 mmHg 87%
    18:00 +19°C° 0.3 mm 2 mps 732 mmHg 89%
    19:00 +18°C° 0.3 mm 2 mps 732 mmHg 90%
    20:00 +18°C° 1.2 mm 2 mps 733 mmHg 89%
    21:00 +18°C° 1.2 mm 2 mps 733 mmHg 88%
    22:00 +17°C° 1.2 mm 2 mps 733 mmHg 86%
    23:00 +17°C° 0 mm 2 mps 733 mmHg 89%

    29 May, Wednesday

    Time Temperature Precipitation Wind Pressure Humidity
    00:00 +16°C° 0 mm 3 mps 733 mmHg 91%
    01:00 +14°C° 0 mm 3 mps 734 mmHg 94%
    02:00 +14°C° 0.4 mm 3 mps 734 mmHg 95%
    03:00 +14°C° 0.4 mm 3 mps 735 mmHg 95%
    04:00 +14°C° 0.4 mm 3 mps 735 mmHg 96%
    05:00 +13°C° 1.2 mm 4 mps 736 mmHg 95%
    06:00 +13°C° 1.2 mm 5 mps 736 mmHg 94%
    07:00 +12°C° 1.2 mm 5 mps 737 mmHg 93%
    08:00 +12°C° 1.1 mm 5 mps 738 mmHg 93%
    09:00 +10°C° 1.1 mm 5 mps 739 mmHg 93%
    10:00 +10°C° 1.1 mm 5 mps 739 mmHg 93%
    11:00 +11°C° 0.2 mm 4 mps 740 mmHg 91%
    12:00 +11°C° 0.2 mm 4 mps 741 mmHg 90%
    13:00 +12°C° 0.2 mm 3 mps 741 mmHg 88%
    14:00 +12°C° 0 mm 3 mps 741 mmHg 87%
    15:00 +14°C° 0 mm 2 mps 742 mmHg 86%
    16:00 +14°C° 0 mm 2 mps 742 mmHg 85%
    17:00 +14°C° 0 mm 2 mps 743 mmHg 85%
    18:00 +14°C° 0 mm 2 mps 743 mmHg 85%
    19:00 +13°C° 0 mm 3 mps 744 mmHg 85%
    20:00 +12°C° 0 mm 3 mps 744 mmHg 86%
    21:00 +12°C° 0 mm 2 mps 744 mmHg 86%
    22:00 +10°C° 0 mm 2 mps 745 mmHg 87%
    23:00 +9°C° 0 mm 2 mps 745 mmHg 89%

    30 May, Thursday

    Time Temperature Precipitation Wind Pressure Humidity
    00:00 +9°C° 0 mm 2 mps 745 mmHg 90%
    01:00 +8°C° 0 mm 2 mps 745 mmHg 92%
    02:00 +8°C° 0 mm 2 mps 746 mmHg 92%
    03:00 +7°C° 0 mm 2 mps 746 mmHg 93%
    04:00 +7°C° 0 mm 2 mps 746 mmHg 93%
    05:00 +8°C° 0 mm 2 mps 746 mmHg 88%
    06:00 +9°C° 0 mm 2 mps 746 mmHg 83%
    07:00 +10°C° 0 mm 2 mps 747 mmHg 78%
    08:00 +10°C° 0.1 mm 2 mps 747 mmHg 73%
    09:00 +12°C° 0.1 mm 2 mps 746 mmHg 68%
    10:00 +12°C° 0.1 mm 1 mps 746 mmHg 64%
    11:00 +12°C° 0.4 mm 1 mps 746 mmHg 69%
    12:00 +12°C° 0.4 mm 2 mps 746 mmHg 73%
    13:00 +10°C° 0.4 mm 2 mps 745 mmHg 78%
    14:00 +11°C° 0 mm 1 mps 745 mmHg 76%
    15:00 +11°C° 0 mm 1 mps 745 mmHg 75%
    16:00 +11°C° 0 mm 1 mps 745 mmHg 74%
    17:00 +11°C° 0 mm 1 mps 745 mmHg 75%
    18:00 +11°C° 0 mm 1 mps 744 mmHg 76%
    19:00 +10°C° 0 mm 0 mps 744 mmHg 77%
    20:00 +10°C° 0 mm 1 mps 744 mmHg 75%
    21:00 +10°C° 0 mm 1 mps 745 mmHg 73%
    22:00 +9°C° 0 mm 1 mps 745 mmHg 71%
    23:00 +9°C° 0 mm 1 mps 744 mmHg 71%
    Show more